St. James, MN

2:13 AM CST on November 22, 2019 (GMT -0600)
Saint James Municipal

Weather History for KJYG - May, 2019

Change the Weather History Date:

Tuesday, May 28, 2019

  Actual Average Record
Temperature  
Mean Temperature 60 °F -  
Max Temperature 64 °F 76 °F 98 °F (2006)
Min Temperature 57 °F 53 °F 34 °F (1965)
Degree Days  
Heating Degree Days 4    
Growing Degree Days 10 (Base 50)    
Moisture  
Dew Point 55 °F    
Average Humidity 82    
Maximum Humidity 94    
Minimum Humidity 73    
Precipitation  
Precipitation 0.00 in - - ()
Sea Level Pressure  
Sea Level Pressure 29.76 in    
Wind  
Wind Speed 8 mph (ENE)    
Max Wind Speed 12 mph    
Max Gust Speed -    
Visibility 10 miles    
Events      
Averages and records for this station are not official NWS values.
T = Trace of Precipitation, MM = Missing Value Source: NWS Daily Summary

Daily Weather History Graph

Daily Weather History Graph

Search for Another Location

Airport or City:

Astronomy

May. 28, 2019 Rise Set
Actual Time 5:40 AM CDT 8:50 PM CDT
Civil Twilight 5:06 AM CDT 9:25 PM CDT
Nautical Twilight 4:21 AM CDT 10:10 PM CDT
Astronomical Twilight 3:26 AM CDT 11:05 PM CDT
Moon 3:09 AM CDT (5/28) 2:46 PM CDT (5/28)
Length of Visible Light 16h 19m
Length of Day
15h 09m
Waning Crescent, 31% of the Moon is Illuminated
May 28
Waning Crescent
Jun 3
New
Jun 10
First Quarter
Jun 17
Full
Jun 25
Last Quarter

Hourly Weather History & Observations

Time (CDT) Temp. Dew Point Humidity Pressure Visibility Wind Dir Wind Speed Gust Speed Precip Events Conditions
3:47 PM 60.8 °F 55.4 °F 82% 29.83 in 10.0 mi East 8.1 mph - N/A   Overcast
4:53 PM 62.6 °F 55.4 °F 77% 29.78 in 10.0 mi ENE 9.2 mph - N/A   Overcast
4:55 PM 62.6 °F 55.4 °F 77% 29.78 in 10.0 mi ENE 11.5 mph - N/A   Overcast
5:15 PM 62.6 °F 55.4 °F 77% 29.77 in 10.0 mi East 10.4 mph - N/A   Overcast
5:35 PM 62.6 °F 55.4 °F 77% 29.76 in 10.0 mi ENE 11.5 mph - N/A   Overcast
5:55 PM 62.6 °F 55.4 °F 77% 29.75 in 10.0 mi NNE 8.1 mph - N/A   Overcast
6:15 PM 62.6 °F 55.4 °F 77% 29.75 in 10.0 mi ENE 11.5 mph - N/A   Overcast
6:35 PM 62.6 °F 55.4 °F 77% 29.75 in 10.0 mi ENE 10.4 mph - N/A   Overcast
6:55 PM 62.6 °F 55.4 °F 77% 29.74 in 10.0 mi NE 10.4 mph - N/A   Mostly Cloudy
7:15 PM 62.6 °F 55.4 °F 77% 29.73 in 10.0 mi NE 9.2 mph - N/A   Scattered Clouds
7:35 PM 64.4 °F 55.4 °F 73% 29.73 in 10.0 mi NE 9.2 mph - N/A   Clear
7:55 PM 64.4 °F 55.4 °F 73% 29.72 in 10.0 mi NE 8.1 mph - N/A   Clear
8:15 PM 62.6 °F 55.4 °F 77% 29.72 in 10.0 mi NNE 10.4 mph - N/A   Clear
8:35 PM 62.6 °F 55.4 °F 77% 29.73 in 10.0 mi NE 5.8 mph - N/A   Clear
8:55 PM 60.8 °F 55.4 °F 82% 29.75 in 10.0 mi ENE 4.6 mph - N/A   Clear
9:15 PM 60.8 °F 55.4 °F 82% 29.77 in 10.0 mi East 5.8 mph - N/A   Clear
9:35 PM 59.0 °F 55.4 °F 88% 29.78 in 10.0 mi SE 4.6 mph - N/A   Clear
9:55 PM 59.0 °F 55.4 °F 88% 29.77 in 10.0 mi Calm Calm - N/A   Clear
10:15 PM 57.2 °F 55.4 °F 94% 29.76 in 10.0 mi Calm Calm - N/A   Clear
10:35 PM 57.2 °F 55.4 °F 94% 29.77 in 10.0 mi ESE 3.5 mph - N/A   Clear
10:55 PM 57.2 °F 55.4 °F 94% 29.76 in 10.0 mi Calm Calm - N/A   Clear
11:15 PM 57.2 °F 55.4 °F 94% 29.75 in 10.0 mi ENE 3.5 mph - N/A   Clear
11:35 PM 57.2 °F 55.4 °F 94% 29.75 in 10.0 mi East 3.5 mph - N/A   Clear
11:55 PM 57.2 °F 55.4 °F 94% 29.76 in 10.0 mi ENE 5.8 mph - N/A   Clear